Location: Gad�tanya
(48.0500°N, 20.8500°E)
Time: 11:43:52
(UTC+00:00)

Alouette 2 Rocket - Pass Details

Date: 05 July 2020
Orbit: 502 x 2650 km, 79.8° (Epoch: 14 August)

Event Time Altitude Azimuth Distance (km) Brightness Sun altitude
Rises 19:55:34 0° 344° (NNW) 2,636 8.2 -10.1°
Reaches altitude 10° 19:57:29 10° 342° (NNW) 1,801 7.2 -10.3°
Maximum altitude 20:01:15 74° 258° (WSW) 653 3.7 -10.7°
Enters shadow 20:06:13 10° 174° (S) 2,367 6.0 -11.2°
